Location: Mohawk View
(42.7837°N, 73.7885°W)
Time: 07:55:55
(UTC+00:00)

Cosmos 1452 Rocket - Pass Details

Date: 17 June 2021
Orbit: 768 x 774 km, 74.1° (Epoch: 28 July)

Event Time Altitude Azimuth Distance (km) Brightness Sun altitude
Rises 01:53:49 0° 197° (SSW) 3,235 6.4 -11.7°
Reaches altitude 10° 01:56:11 10° 197° (SSW) 2,312 5.7 -11.9°
Maximum altitude 02:01:27 87° 111° (ESE) 780 3.5 -12.6°
Drops below altitude 10° 02:06:45 10° 21° (NNE) 2,326 6.4 -13.2°
Sets 02:09:08 0° 21° (NNE) 3,257 7.2 -13.5°
